Time,TemperatureF,DewpointF,PressureIn,WindDirection,WindDirectionDegrees,WindSpeedMPH,WindSpeedGustMPH,Humidity,HourlyPrecipIn,Conditions,Clouds,dailyrainin,SoftwareType,DateUTC
2013-02-22 00:02:00,56.7,48.0,30.09,West,262,0.0,-999.0,73,-99.99,,,0.00,weatherlink.com 1.10,2013-02-22 05:02:00,
2013-02-22 00:17:00,56.9,48.0,30.10,West,261,0.0,-999.0,73,-99.99,,,0.00,weatherlink.com 1.10,2013-02-22 05:17:00,
2013-02-22 00:32:00,57.0,49.0,30.11,South,191,0.0,-999.0,74,-99.99,,,0.00,weatherlink.com 1.10,2013-02-22 05:32:00,
2013-02-22 00:47:00,57.2,49.0,30.11,South,191,1.0,-999.0,74,-99.99,,,0.00,weatherlink.com 1.10,2013-02-22 05:47:00,
2013-02-22 01:02:00,57.3,49.0,30.10,SSW,206,0.0,-999.0,74,-99.99,,,0.00,weatherlink.com 1.10,2013-02-22 06:02:00,
2013-02-22 01:17:00,57.3,49.0,30.10,NW,320,0.0,-999.0,75,-99.99,,,0.00,weatherlink.com 1.10,2013-02-22 06:17:00,
2013-02-22 01:32:00,57.3,49.0,30.11,SSW,205,0.0,-999.0,75,-99.99,,,0.00,weatherlink.com 1.10,2013-02-22 06:32:00,
2013-02-22 01:47:00,57.5,50.0,30.09,West,275,2.0,-999.0,75,-99.99,,,0.00,weatherlink.com 1.10,2013-02-22 06:47:00,
2013-02-22 02:02:00,57.6,50.0,30.09,WSW,237,0.0,-999.0,76,-99.99,,,0.00,weatherlink.com 1.10,2013-02-22 07:02:00,
2013-02-22 02:17:00,57.6,50.0,30.10,WSW,250,0.0,-999.0,75,-99.99,,,0.00,weatherlink.com 1.10,2013-02-22 07:17:00,
2013-02-22 02:32:00,57.6,50.0,30.09,West,269,0.0,-999.0,75,-99.99,,,0.00,weatherlink.com 1.10,2013-02-22 07:32:00,
2013-02-22 02:47:00,57.5,50.0,30.09,West,264,4.0,-999.0,75,-99.99,,,0.00,weatherlink.com 1.10,2013-02-22 07:47:00,
2013-02-22 03:02:00,57.5,49.0,30.09,SSW,193,0.0,-999.0,74,-99.99,,,0.00,weatherlink.com 1.10,2013-02-22 08:02:00,
2013-02-22 03:17:00,57.2,49.0,30.08,WSW,256,4.0,-999.0,74,-99.99,,,0.00,weatherlink.com 1.10,2013-02-22 08:17:00,
2013-02-22 03:32:00,57.2,49.0,30.09,SW,232,0.0,-999.0,74,-99.99,,,0.00,weatherlink.com 1.10,2013-02-22 08:32:00,
2013-02-22 03:47:00,57.0,48.0,30.08,West,261,1.0,-999.0,73,-99.99,,,0.00,weatherlink.com 1.10,2013-02-22 08:47:00,
2013-02-22 04:02:00,57.2,49.0,30.08,SW,231,2.0,-999.0,73,-99.99,,,0.00,weatherlink.com 1.10,2013-02-22 09:02:00,
2013-02-22 04:17:00,57.0,48.0,30.08,NW,314,0.0,-999.0,72,-99.99,,,0.00,weatherlink.com 1.10,2013-02-22 09:17:00,
2013-02-22 04:32:00,56.7,47.0,30.08,SSW,202,0.0,-999.0,70,-99.99,,,0.00,weatherlink.com 1.10,2013-02-22 09:32:00,
2013-02-22 04:47:00,56.6,46.0,30.08,West,267,1.0,-999.0,69,-99.99,,,0.00,weatherlink.com 1.10,2013-02-22 09:47:00,
2013-02-22 05:02:00,56.6,46.0,30.08,WSW,257,1.0,-999.0,68,-99.99,,,0.00,weatherlink.com 1.10,2013-02-22 10:02:00,
2013-02-22 05:17:00,56.5,47.0,30.08,West,270,1.0,-999.0,70,-99.99,,,0.00,weatherlink.com 1.10,2013-02-22 10:17:00,
2013-02-22 05:32:00,56.3,47.0,30.09,West,259,0.0,-999.0,70,-99.99,,,0.00,weatherlink.com 1.10,2013-02-22 10:32:00,
2013-02-22 05:47:00,56.5,47.0,30.08,WSW,249,1.0,-999.0,70,-99.99,,,0.00,weatherlink.com 1.10,2013-02-22 10:47:00,
2013-02-22 06:02:00,56.5,46.0,30.08,West,260,4.0,-999.0,69,-99.99,,,0.00,weatherlink.com 1.10,2013-02-22 11:02:00,
2013-02-22 06:17:00,56.6,46.0,30.09,West,273,2.0,-999.0,69,-99.99,,,0.00,weatherlink.com 1.10,2013-02-22 11:17:00,
2013-02-22 06:32:00,56.9,47.0,30.10,SW,230,3.0,-999.0,69,-99.99,,,0.00,weatherlink.com 1.10,2013-02-22 11:32:00,
2013-02-22 06:47:00,56.9,46.0,30.11,West,259,2.0,-999.0,68,-99.99,,,0.00,weatherlink.com 1.10,2013-02-22 11:47:00,
2013-02-22 07:02:00,56.9,46.0,30.11,WSW,249,0.0,-999.0,67,-99.99,,,0.00,weatherlink.com 1.10,2013-02-22 12:02:00,
2013-02-22 07:17:00,56.7,46.0,30.12,WNW,303,0.0,-999.0,68,-99.99,,,0.00,weatherlink.com 1.10,2013-02-22 12:17:00,
2013-02-22 07:32:00,56.5,46.0,30.12,South,190,4.0,-999.0,69,-99.99,,,0.00,weatherlink.com 1.10,2013-02-22 12:32:00,
2013-02-22 07:47:00,55.7,47.0,30.12,West,268,0.0,-999.0,72,-99.99,,,0.00,weatherlink.com 1.10,2013-02-22 12:47:00,
2013-02-22 08:02:00,55.1,47.0,30.11,SSW,206,2.0,-999.0,74,-99.99,,,0.00,weatherlink.com 1.10,2013-02-22 13:02:00,
2013-02-22 08:17:00,54.8,47.0,30.10,West,269,1.0,-999.0,76,-99.99,,,0.00,weatherlink.com 1.10,2013-02-22 13:17:00,
2013-02-22 08:32:00,54.8,48.0,30.11,NW,326,4.0,-999.0,78,-99.99,,,0.00,weatherlink.com 1.10,2013-02-22 13:32:00,
2013-02-22 08:47:00,54.8,48.0,30.12,SE,126,0.0,-999.0,78,-99.99,,,0.00,weatherlink.com 1.10,2013-02-22 13:47:00,
2013-02-22 09:02:00,54.7,48.0,30.12,WNW,294,0.0,-999.0,78,-99.99,,,0.00,weatherlink.com 1.10,2013-02-22 14:02:00,
2013-02-22 09:17:00,54.7,48.0,30.12,West,267,2.0,-999.0,79,-99.99,,,0.00,weatherlink.com 1.10,2013-02-22 14:17:00,
2013-02-22 09:32:00,55.0,49.0,30.11,SSW,195,4.0,-999.0,79,-99.99,,,0.00,weatherlink.com 1.10,2013-02-22 14:32:00,
2013-02-22 09:47:00,55.7,50.0,30.11,SW,234,1.0,-999.0,80,-99.99,,,0.00,weatherlink.com 1.10,2013-02-22 14:47:00,
2013-02-22 10:03:00,56.0,50.0,30.12,WSW,249,0.0,-999.0,79,-99.99,,,0.00,weatherlink.com 1.10,2013-02-22 15:03:00,
2013-02-22 10:17:00,56.0,50.0,30.12,WSW,239,2.0,-999.0,79,-99.99,,,0.00,weatherlink.com 1.10,2013-02-22 15:17:00,
2013-02-22 12:25:00,58.1,52.0,30.11,WSW,243,1.0,-999.0,81,-99.99,,,0.00,weatherlink.com 1.10,2013-02-22 17:25:00,
2013-02-22 12:33:00,58.0,52.0,30.12,WSW,255,1.0,-999.0,81,-99.99,,,0.00,weatherlink.com 1.10,2013-02-22 17:33:00,
2013-02-22 12:47:00,57.6,52.0,30.12,NNE,18,0.0,-999.0,81,-99.99,,,0.00,weatherlink.com 1.10,2013-02-22 17:47:00,
2013-02-22 13:03:00,57.5,52.0,30.09,West,272,0.0,-999.0,81,-99.99,,,0.00,weatherlink.com 1.10,2013-02-22 18:03:00,
2013-02-22 13:18:00,58.1,53.0,30.06,NW,316,0.0,-999.0,82,-99.99,,,0.00,weatherlink.com 1.10,2013-02-22 18:18:00,
2013-02-22 13:33:00,59.3,54.0,30.05,WNW,301,0.0,-999.0,83,-99.99,,,0.00,weatherlink.com 1.10,2013-02-22 18:33:00,
2013-02-22 13:48:00,60.1,55.0,30.05,West,264,0.0,-999.0,83,-99.99,,,0.00,weatherlink.com 1.10,2013-02-22 18:48:00,
2013-02-22 14:03:00,60.2,55.0,30.04,SE,138,0.0,-999.0,82,-99.99,,,0.00,weatherlink.com 1.10,2013-02-22 19:03:00,
2013-02-22 14:18:00,60.2,55.0,30.06,West,266,0.0,-999.0,82,-99.99,,,0.00,weatherlink.com 1.10,2013-02-22 19:18:00,
2013-02-22 14:32:00,60.5,55.0,30.05,SE,136,0.0,-999.0,83,-99.99,,,0.00,weatherlink.com 1.10,2013-02-22 19:32:00,
2013-02-22 14:48:00,61.2,56.0,30.05,South,174,0.0,-999.0,83,-99.99,,,0.00,weatherlink.com 1.10,2013-02-22 19:48:00,
2013-02-22 15:03:00,60.9,55.0,30.02,WNW,298,1.0,-999.0,82,-99.99,,,0.00,weatherlink.com 1.10,2013-02-22 20:03:00,
2013-02-22 15:18:00,61.0,56.0,30.03,SW,232,0.0,-999.0,83,-99.99,,,0.00,weatherlink.com 1.10,2013-02-22 20:18:00,
2013-02-22 15:33:00,61.5,56.0,30.03,SW,232,0.0,-999.0,83,-99.99,,,0.00,weatherlink.com 1.10,2013-02-22 20:33:00,
2013-02-22 15:48:00,61.3,56.0,30.04,SW,232,0.0,-999.0,83,-99.99,,,0.00,weatherlink.com 1.10,2013-02-22 20:48:00,
2013-02-22 16:03:00,61.6,56.0,30.03,SW,232,0.0,-999.0,83,-99.99,,,0.00,weatherlink.com 1.10,2013-02-22 21:03:00,
2013-02-22 16:18:00,62.0,57.0,30.05,SW,230,0.0,-999.0,83,-99.99,,,0.00,weatherlink.com 1.10,2013-02-22 21:18:00,
2013-02-22 16:33:00,62.3,57.0,30.03,SW,230,0.0,-999.0,83,-99.99,,,0.00,weatherlink.com 1.10,2013-02-22 21:33:00,
2013-02-22 16:48:00,62.4,-99.9,30.02,SW,230,0.0,-999.0,-999,-99.99,,,0.00,weatherlink.com 1.10,2013-02-22 21:48:00,
2013-02-22 17:03:00,62.6,-99.9,30.02,SW,230,0.0,-999.0,-999,-99.99,,,0.00,weatherlink.com 1.10,2013-02-22 22:03:00,
2013-02-22 17:18:00,62.6,-99.9,30.02,SW,230,0.0,-999.0,-999,-99.99,,,0.00,weatherlink.com 1.10,2013-02-22 22:18:00,
2013-02-22 17:34:00,62.9,-99.9,30.02,SW,230,0.0,-999.0,-999,-99.99,,,0.00,weatherlink.com 1.10,2013-02-22 22:34:00,
2013-02-22 17:49:00,62.9,-99.9,30.04,SW,230,0.0,-999.0,-999,-99.99,,,0.00,weatherlink.com 1.10,2013-02-22 22:49:00,
2013-02-22 18:04:00,62.3,-99.9,30.03,SW,230,0.0,-999.0,-999,-99.99,,,0.00,weatherlink.com 1.10,2013-02-22 23:04:00,
2013-02-22 18:19:00,62.3,-99.9,30.02,SW,230,0.0,-999.0,-999,-99.99,,,0.00,weatherlink.com 1.10,2013-02-22 23:19:00,
2013-02-22 18:34:00,62.1,-99.9,30.02,SW,230,0.0,-999.0,-999,-99.99,,,0.00,weatherlink.com 1.10,2013-02-22 23:34:00,
2013-02-22 18:49:00,61.5,-99.9,30.03,SW,230,0.0,-999.0,-999,-99.99,,,0.00,weatherlink.com 1.10,2013-02-22 23:49:00,
2013-02-22 19:04:00,60.9,-99.9,30.03,SW,230,0.0,-999.0,-999,-99.99,,,0.00,weatherlink.com 1.10,2013-02-23 00:04:00,
2013-02-22 19:19:00,60.4,-99.9,30.03,South,186,0.0,-999.0,-999,-99.99,,,0.00,weatherlink.com 1.10,2013-02-23 00:19:00,
2013-02-22 19:34:00,59.9,-99.9,30.05,South,187,0.0,-999.0,-999,-99.99,,,0.00,weatherlink.com 1.10,2013-02-23 00:34:00,
2013-02-22 19:49:00,59.8,-99.9,30.05,South,187,0.0,-999.0,-999,-99.99,,,0.00,weatherlink.com 1.10,2013-02-23 00:49:00,
2013-02-22 20:04:00,59.6,-99.9,30.03,South,187,0.0,-999.0,-999,-99.99,,,0.00,weatherlink.com 1.10,2013-02-23 01:04:00,
2013-02-22 20:19:00,59.6,-99.9,30.05,South,187,0.0,-999.0,-999,-99.99,,,0.00,weatherlink.com 1.10,2013-02-23 01:19:00,
2013-02-22 20:34:00,59.6,-99.9,30.06,South,187,0.0,-999.0,-999,-99.99,,,0.00,weatherlink.com 1.10,2013-02-23 01:34:00,
2013-02-22 20:50:00,59.3,-99.9,30.05,South,187,0.0,-999.0,-999,-99.99,,,0.00,weatherlink.com 1.10,2013-02-23 01:50:00,
2013-02-22 21:05:00,58.7,-99.9,30.06,South,187,0.0,-999.0,-999,-99.99,,,0.00,weatherlink.com 1.10,2013-02-23 02:05:00,
2013-02-22 21:20:00,58.4,-99.9,30.05,South,187,0.0,-999.0,-999,-99.99,,,0.00,weatherlink.com 1.10,2013-02-23 02:20:00,
2013-02-22 21:35:00,58.4,-99.9,30.05,South,187,0.0,-999.0,-999,-99.99,,,0.00,weatherlink.com 1.10,2013-02-23 02:35:00,
2013-02-22 21:50:00,58.1,-99.9,30.05,South,176,0.0,-999.0,-999,-99.99,,,0.00,weatherlink.com 1.10,2013-02-23 02:50:00,
2013-02-22 22:05:00,57.3,-99.9,30.05,South,176,0.0,-999.0,-999,-99.99,,,0.00,weatherlink.com 1.10,2013-02-23 03:05:00,
2013-02-22 22:20:00,57.2,-99.9,30.05,South,173,0.0,-999.0,-999,-99.99,,,0.00,weatherlink.com 1.10,2013-02-23 03:20:00,
2013-02-22 22:35:00,56.6,-99.9,30.06,South,187,0.0,-999.0,-999,-99.99,,,0.00,weatherlink.com 1.10,2013-02-23 03:35:00,
2013-02-22 22:50:00,55.9,-99.9,30.06,South,183,0.0,-999.0,-999,-99.99,,,0.00,weatherlink.com 1.10,2013-02-23 03:50:00,
2013-02-22 23:05:00,55.1,-99.9,30.06,South,182,0.0,-999.0,-999,-99.99,,,0.00,weatherlink.com 1.10,2013-02-23 04:05:00,
2013-02-22 23:20:00,54.4,-99.9,30.05,South,182,0.0,-999.0,-999,-99.99,,,0.00,weatherlink.com 1.10,2013-02-23 04:20:00,
2013-02-22 23:35:00,54.1,-99.9,30.03,South,182,0.0,-999.0,-999,-99.99,,,0.00,weatherlink.com 1.10,2013-02-23 04:35:00,
2013-02-22 23:50:00,54.1,-99.9,30.02,South,182,0.0,-999.0,-999,-99.99,,,0.00,weatherlink.com 1.10,2013-02-23 04:50:00,